Regional Weather Roundup
Issued by NWS Northern Indiana

Home | Current Version | Previous Version | Graphics & Text | Print | Product List | Glossary On
Versions: 1 2 3 4 5 6 7 8 9 10 11 12 13 14 15 16 17 18 19 20 21 22 23 24 25 26 27 28 29 30 31 32 33 34 35 36 37 38 39 40 41 42 43 44 45 46 47 48 49 50
000
ASUS43 KIWX 302110
RWRIWX

KIWX WEATHER ROUNDUP
NATIONAL WEATHER SERVICE NORTHERN INDIANA
400 PM EST FRI JAN 30 2015

NOTE: "FAIR" INDICATES FEW OR NO CLOUDS BELOW 12,000 FEET WITH NO
SIGNIFICANT WEATHER AND/OR OBSTRUCTIONS TO VISIBILITY.

* THESE STATIONS ARE NOT UNDER NWS QUALITY CONTROL. THEY ALSO MAY NOT
  REPORT WEATHER SUCH AS PRECIPITATION OR FOG.

INZ001>027-302200-
NORTHERN INDIANA

CITY           SKY/WX    TMP DP  RH WIND       PRES   REMARKS
GARY*          MOSUNNY   30  10  43 CALM      30.47F
VALPARAISO     MOSUNNY   28  13  53 N6        30.45F WCI  22
MICHIGAN CITY* CLOUDY    28  10  47 N3        30.47F
LAPORTE*       MOSUNNY   27  16  63 N8        30.46F WCI  19
KNOX*          MOSUNNY   28   0  29 NW7       30.46S WCI  21
SOUTH BEND     CLOUDY    26  15  63 NW9       30.45F WCI  17
ELKHART*       CLOUDY    25  12  58 N7        30.45F WCI  17
GOSHEN         CLOUDY    25  14  63 NW12      30.44S WCI  14
MONTICELLO*    MOSUNNY   29  17  61 NW5       30.46F WCI  23
LOGANSPORT*    MOSUNNY   30  18  59 NW6       30.46F WCI  24
ROCHESTER*     MOSUNNY   30  19  64 NW6       30.46S WCI  24
WARSAW*        CLOUDY    27  16  63 N7        30.45S WCI  19
ANGOLA*        SUNNY     23   9  54 NW7       30.42S WCI  15
FORT WAYNE     PTSUNNY   26  13  57 W12       30.45S WCI  16
HUNTINGTON*    PTSUNNY   25  10  53 NW8       30.45R WCI  16
PERU/GRISSOM   PTSUNNY   28  16  62 NW6       30.45R WCI  21
MARION*        CLOUDY    26  15  64 N7        30.47R WCI  18

$$
INZ028>050-302200-
CENTRAL INDIANA

CITY           SKY/WX    TMP DP  RH WIND       PRES   REMARKS
LAFAYETTE      MOSUNNY   30  17  58 NW5       30.47F WCI  25
KOKOMO*        CLOUDY    28  18  64 N7        30.46R WCI  21
MUNCIE*        CLOUDY    27  16  63 NW10      30.45R WCI  17
INDIANAPOLIS   MOSUNNY   30  15  53 N9        30.45S WCI  22

$$
MIZ043>046-050>051-056>058-064>065-071>073-077>080-302200-
SOUTHWEST LOWER MICHIGAN

CITY           SKY/WX    TMP DP  RH WIND       PRES   REMARKS
BATTLE CREEK   SUNNY     23   9  55 NW8       30.42F WCI  14
BENTON HARBOR  CLOUDY    24  17  74 VRB5      30.46S WCI  18
COLDWATER*     SUNNY     23   8  52 NW3       30.42S
HILLSDALE*     MOSUNNY   22   9  56 CALM      30.39F
HOLLAND        CLOUDY    24  13  62 NW9       30.45S WCI  14
GRAND RAPIDS   PTSUNNY   23   9  55 W8        30.43S WCI  14
KALAMAZOO      SUNNY     24  10  55 N9        30.43S WCI  14
STURGIS*       PTSUNNY   25  10  54 CALM      30.42S
THREE RIVERS*  FAIR      25  13  59 W9        30.44S WCI  16

$$
OHZ001>008-015>018-024>025-302200-
NORTHWEST OHIO

CITY           SKY/WX    TMP DP  RH WIND       PRES   REMARKS
WAUSEON*       FAIR      23   9  54 NW12      30.43F WCI  12
DEFIANCE       MOSUNNY   26  10  50 NW9       30.45S WCI  17
FINDLAY        MOSUNNY   23   8  52 NW9       30.43R WCI  13
TOLEDO EXPRESS PTSUNNY   22   8  55 W12G17    30.44S WCI  10
TOLEDO METCALF SUNNY     23   6  48 NW10      30.45S WCI  12
LIMA           CLOUDY    24  11  57 NW9       30.42S WCI  14

$$
AND FOR LAKE MICHIGAN COASTAL AND OPEN LAKE BUOY OBSERVATIONS

STATION/POSITION TEMP    WIND        PRES    VSBY  WAVE
                 AIR SEA DIR/SP/G                  HT/PER
                 (F)     (DEG/KT/KT) (MB)    (MI)  (FT/S)
CALUMET HARBOR    25      60/  6/  7   N/A
MICHIGAN CITY     27     320/  6/ 10   N/A
SAINT JOSEPH      25     320/  7/ 13 1032.2S

$$
&&



USA.gov is the U.S. government's official web portal to all federal, state and local government web resources and services.